Location: Caltech
(34.1382°N, 118.1253°W)
Time: 19:56:52
(UTC-07:00)

Iridium 62 - Visible Passes

Search period start: 15 September 2014 00:00
Search period end: 25 September 2014 00:00
Orbit: 776 x 779 km, 86.4° (Epoch: 15 September)

Date Brightness Start Highest point End Pass type
(mag) Time Alt. Az. Time Alt. Az. Time Alt. Az.
15 Sep 5.7 20:09:14 10° S 20:14:26 83° E 20:19:39 10° N visible
16 Sep 6.2 19:36:09 10° SSE 19:41:00 42° E 19:45:53 10° NNE visible
16 Sep 8.5 21:18:25 10° WSW 21:21:52 18° W 21:25:20 10° NW visible
17 Sep 7.5 20:43:27 10° SSW 20:48:08 34° W 20:52:50 10° NNW visible
18 Sep 6.2 20:09:22 10° S 20:14:31 66° W 20:19:42 10° N visible
19 Sep 5.8 19:35:54 10° S 19:41:02 63° E 19:46:10 10° N visible
19 Sep 9.0 21:20:24 10° W 21:22:09 12° WNW 21:23:55 10° NW visible
20 Sep 9.2 06:11:46 10° NE 06:14:25 14° ENE 06:17:04 10° ESE visible
20 Sep 8.2 20:44:17 10° SW 20:48:20 23° W 20:52:25 10° NNW visible
21 Sep 7.0 20:09:43 10° SSW 20:14:39 44° W 20:19:37 10° NNW visible
22 Sep 5.9 19:35:53 10° S 19:41:05 86° W 19:46:19 10° N visible
23 Sep 8.8 06:10:49 10° NNE 06:14:41 21° E 06:18:33 10° SE visible
23 Sep 6.1 19:02:40 10° SSE 19:07:38 48° E 19:12:38 10° NNE visible
23 Sep 8.8 20:45:35 10° WSW 20:48:35 15° WNW 20:51:37 10° NW visible
24 Sep 9.6 05:40:03 10° ENE 05:40:51 10° ENE 05:41:39 10° E visible
24 Sep 7.9 20:10:20 10° SW 20:14:50 29° W 20:19:21 10° NNW visible
